Regional Weather Roundup
Issued by NWS

Home | Current Version | Previous Version | Text Only | Print | Product List | Glossary Off
Versions: 1 2 3 4 5 6 7 8 9 10 11 12 13 14 15 16 17 18 19 20 21 22 23 24 25 26 27

000
ASUS45 KCYS 240110
RWRWY

WYOMING REGIONAL WEATHER ROUNDUP
NATIONAL WEATHER SERVICE CHEYENNE WY
700 PM MDT WED APR 23 2014

NOTE:  "FAIR" INDICATES FEW OR NO CLOUDS BELOW 12,000 FEET
WITH NO SIGNIFICANT WEATHER AND/OR OBSTRUCTIONS TO VISIBILITY.

WYZ001-240200-
YELLOWSTONE NATIONAL PARK

CITY           SKY/WX    TMP DP  RH WIND       PRES   REMARKS
LK YELLOWSTONE   N/A     27  23  85 VRB6      29.93R WCI  20
W YELLOWSTONE  NOT AVBL

$$
WYZ002>013-054>058-071-098>099-240200-
NORTHERN WYOMING

CITY           SKY/WX    TMP DP  RH WIND       PRES   REMARKS
JACKSON        CLOUDY    30  28  93 SE15      29.95S WCI  19
CODY           MOSUNNY   45  18  33 W15G28    29.84R
GREYBULL       MOSUNNY   54   6  14 W23       29.79R
WORLAND        MOSUNNY   53   6  15 NW20      29.80R
SHERIDAN         N/A     39   9  28 W20G31      N/A  WCI  30
BUFFALO        MOCLDY    45  21  38 W6        29.79R
GILLETTE       CLOUDY    49  21  33 NW10      29.77R
HULETT         FAIR      46  28  49 W6        29.76
NEWCASTLE      FAIR      48  28  46 NW16      29.75

$$
WYZ014>020-022>026-101>103-240200-
CENTRAL WYOMING

CITY           SKY/WX    TMP DP  RH WIND       PRES   REMARKS
BIG PINEY      MOSUNNY   35  18  49 NW9G22    29.98R WCI  28
PINEDALE       PTCLDY    36  16  44 W10G21    29.98R WCI  28
DUBOIS         FAIR      34  12  40 W21G35    29.87R WCI  22
LANDER         MOSUNNY   45   4  18 W24G32    29.88R
RIVERTON       SUNNY     47   2  15 W23G36    29.86R
CASPER         MOCLDY    50  10  20 W20G32    29.79R
DOUGLAS        CLOUDY    51  30  44 N12       29.79R

$$
WYZ021-027>030-104>119-240200-
SOUTHERN WYOMING

CITY           SKY/WX    TMP DP  RH WIND       PRES   REMARKS
EVANSTON       PTSUNNY   38  13  35 W20G25    30.03S WCI  28
KEMMERER       PTCLDY    34  18  51 W16       30.01S WCI  23
FORT BRIDGER   FAIR      41  17  39 W22       30.05R
ROCK SPRINGS   MOSUNNY   41   7  24 W21G32    29.98R
DIXON          FAIR      44  11  25 W21G30    29.97R
RAWLINS        CLEAR     42   5  21 W31G40    29.90R
SARATOGA       FAIR      41   9  26 W26G35    29.92R
LARAMIE        MOCLDY    41  10  28 W25       29.85R
CHEYENNE       CLOUDY    50  15  24 NW18G30   29.76R
TORRINGTON     CLOUDY    57   8  14 W22G30    29.73R
PINE BLUFFS    CLOUDY    52  12  20 NW21G31   29.77R

$$



USA.gov is the U.S. government's official web portal to all federal, state and local government web resources and services.